Volver al catálogo

THORAD AGENA D DEB

ActivoLEO
NORAD 4951·DEBRIS·🇺🇸 United States

Lanzado Apr 8, 1970 desde Vandenberg Space Force Base

Loading…

Próximos Pases (próximas 24 horas)

TLE

ActualizadoSource: Space-Track

Época: Sep 14, 2026, 23:01 UTC

1 04951U 70025GM  26257.95959330  .00000107  00000-0  20426-3 0  9993
2 04951 100.1894 257.5924 0016791 261.6886 126.5758 13.61281792795059

Sigue THORAD AGENA D DEB en tiempo real con AllMySat

Download on the App Store